This demonstration page uses our WeatherBlox Daily Observations layout. Learn more.

Left ArrowRight Arrow

Hourly Observations for January 4, 2016

Temp ( °F °C ) Dew Point ( °F °C ) Humidity (%) Winds ( mph kmh ) Pressure ( in mb ) Visibility ( mi km ) Precip ( " mm )
12:53 am 00:53 Clear 41 5 27 -2.8 57 57 NNW 3 6 30.03 1017 10 16 0.00 0.00
1:53 am 01:53 Clear 41 5 26 -3.3 55 55 NNW 7 11 30.02 1017 10 16 0.00 0.00
2:53 am 02:53 Clear 40 4.4 26 -3.3 58 58 NNW 7 11 30.01 1016 10 16 0.00 0.00
3:53 am 03:53 Clear 39 3.9 26 -3.3 60 60 VRB 6 9 30.02 1017 10 16 0.00 0.00
4:53 am 04:53 Clear 38 3.3 27 -2.8 65 65 NNW 6 9 30.03 1017 10 16 0.00 0.00
5:53 am 05:53 Clear 36 2.2 27 -2.8 70 70 NNW 10 17 30.05 1018 10 16 0.00 0.00
6:53 am 06:53 Clear 35 1.7 26 -3.3 70 70 NNW 16 26 30.09 1019 10 16 0.00 0.00
7:53 am 07:53 Sunny 33 0.6 24 -4.4 70 70 NNW 5 7 30.12 1020 10 16 0.00 0.00
8:53 am 08:53 Sunny 35 1.7 24 -4.4 64 64 NNW 7 11 30.15 1021 10 16 0.00 0.00
9:53 am 09:53 Sunny 37 2.8 23 -5 57 57 N 14 22 30.19 1022 10 16 0.00 0.00
10:53 am 10:53 Sunny 39 3.9 23 -5 53 53 N 9 15 30.20 1023 10 16 0.00 0.00
11:53 am 11:53 Sunny 41 5 23 -5 49 49 N 12 19 30.19 1022 10 16 0.00 0.00
12:53 pm 12:53 Sunny 43 6.1 23 -5 45 45 NNW 16 26 30.18 1022 10 16 0.00 0.00
1:53 pm 13:53 Sunny 44 6.7 21 -6.1 40 40 NNW 13 20 30.17 1022 10 16 0.00 0.00
2:53 pm 14:53 Sunny 43 6.1 20 -6.7 40 40 NW 13 20 30.18 1022 10 16 0.00 0.00
3:53 pm 15:53 Sunny 42 5.6 20 -6.7 41 41 NNW 13 20 30.21 1023 10 16 0.00 0.00
4:53 pm 16:53 Sunny 41 5 20 -6.7 43 43 NNW 15 24 30.24 1024 10 16 0.00 0.00
5:53 pm 17:53 Clear 38 3.3 19 -7.2 46 46 NNW 12 19 30.27 1025 10 16 0.00 0.00
6:53 pm 18:53 Clear 37 2.8 19 -7.2 48 48 N 7 11 30.29 1026 10 16 0.00 0.00
7:53 pm 19:53 Clear 36 2.2 16 -8.9 44 44 N 9 15 30.33 1027 10 16 0.00 0.00
8:53 pm 20:53 Clear 35 1.7 14 -10 42 42 NNE 9 15 30.35 1028 10 16 0.00 0.00
9:53 pm 21:53 Clear 33 0.6 15 -9.4 47 47 NNE 5 7 30.37 1028 10 16 0.00 0.00
10:53 pm 22:53 Clear 31 -0.6 15 -9.4 52 52 NNE 3 6 30.38 1029 10 16 0.00 0.00
11:53 pm 23:53 Clear 31 -0.6 15 -9.4 52 52 NNE 3 6 30.37 1029 10 16 0.00 0.00

Powered by AerisWeather